MQC97J DRRN-GFLL

Flight info

Callsign MQC97J
Flight time N/A
Altitude 24000
Route BANGA1W BANGA G854 BULSA/N0469F340 UG854 AMKAX UB727 OVLAG OVLAG1B
Aircraft B738/M-SDE2E3FGHIRWXY/LB1

Departure

Time 2026-04-27 17:46
Airport Diori Hamani International Airport (DRRN)

Arrival

Time N/A
Airport Lungi International Airport (GFLL)
Time Latitude Longitude Altitude Speed Heading
2026-04-27 17:33 13.47782 2.17689 729 ft 0 kts 133°
2026-04-27 17:41 13.47765 2.17685 729 ft 3 kts 226°
2026-04-27 17:41 13.47777 2.17666 729 ft 4 kts 349°
2026-04-27 17:42 13.47812 2.17660 729 ft 7 kts 351°
2026-04-27 17:42 13.47871 2.17650 729 ft 10 kts 350°
2026-04-27 17:42 13.47949 2.17639 730 ft 12 kts 354°
2026-04-27 17:42 13.48040 2.17630 729 ft 14 kts 354°
2026-04-27 17:43 13.48142 2.17616 729 ft 15 kts 333°
2026-04-27 17:43 13.48187 2.17517 729 ft 16 kts 284°
2026-04-27 17:43 13.48187 2.17404 730 ft 16 kts 268°
2026-04-27 17:43 13.48185 2.17286 731 ft 16 kts 269°
2026-04-27 17:44 13.48185 2.17170 733 ft 16 kts 271°
2026-04-27 17:44 13.48187 2.17090 735 ft 0 kts 272°
2026-04-27 17:45 13.48187 2.17089 735 ft 2 kts 272°
2026-04-27 17:45 13.48189 2.17017 736 ft 12 kts 270°
2026-04-27 17:45 13.48149 2.16965 736 ft 8 kts 148°
2026-04-27 17:45 13.48149 2.17040 736 ft 26 kts 85°
2026-04-27 17:46 13.48179 2.17507 730 ft 103 kts 86°
2026-04-27 17:46 13.48228 2.18472 726 ft 165 kts 87°
2026-04-27 17:46 13.48291 2.19778 1029 ft 197 kts 88°
2026-04-27 17:46 13.48310 2.21270 1509 ft 223 kts 96°
2026-04-27 17:47 13.47753 2.22818 1903 ft 239 kts 128°
2026-04-27 17:47 13.46965 2.23577 2512 ft 231 kts 148°
2026-04-27 17:47 13.44855 2.24160 3072 ft 253 kts 186°
2026-04-27 17:47 13.43157 2.23539 3429 ft 268 kts 216°
2026-04-27 17:48 13.41948 2.22087 4062 ft 272 kts 247°
2026-04-27 17:48 13.41641 2.20207 4766 ft 274 kts 275°
2026-04-27 17:48 13.41902 2.18236 5490 ft 277 kts 279°
2026-04-27 17:48 13.42206 2.16295 6180 ft 280 kts 278°
2026-04-27 17:49 13.42439 2.14265 6825 ft 286 kts 275°
2026-04-27 17:49 13.42607 2.12206 7422 ft 292 kts 274°
2026-04-27 17:49 13.42756 2.10116 8065 ft 296 kts 274°
2026-04-27 17:49 13.42904 2.07982 8662 ft 303 kts 274°
2026-04-27 17:50 13.43055 2.05810 9291 ft 308 kts 274°
2026-04-27 17:50 13.42660 2.01388 10258 ft 326 kts 250°
2026-04-27 17:50 13.41859 1.99122 10401 ft 347 kts 248°
2026-04-27 17:51 13.41010 1.96726 10548 ft 367 kts 250°
2026-04-27 17:51 13.40203 1.94185 10831 ft 380 kts 252°
2026-04-27 17:51 13.39465 1.91561 11335 ft 384 kts 253°
2026-04-27 17:51 13.38743 1.88911 11922 ft 386 kts 253°
2026-04-27 17:52 13.38007 1.86252 12513 ft 388 kts 253°
2026-04-27 17:52 13.37251 1.83584 13101 ft 391 kts 252°
2026-04-27 17:52 13.36473 1.80899 13659 ft 393 kts 252°
2026-04-27 17:52 13.35679 1.78203 14167 ft 396 kts 252°
2026-04-27 17:53 13.34875 1.75498 14718 ft 396 kts 252°
2026-04-27 17:53 13.34066 1.72790 15272 ft 397 kts 252°
2026-04-27 17:53 13.33252 1.70073 15771 ft 399 kts 252°
2026-04-27 17:53 13.32443 1.67377 16277 ft 401 kts 252°
2026-04-27 17:54 13.31621 1.64637 16770 ft 403 kts 252°
2026-04-27 17:54 13.30792 1.61874 17277 ft 405 kts 252°
2026-04-27 17:54 13.29962 1.59108 17778 ft 406 kts 252°
2026-04-27 17:54 13.29129 1.56330 18237 ft 408 kts 252°
2026-04-27 17:55 13.28292 1.53540 18609 ft 411 kts 252°
2026-04-27 17:55 13.27448 1.50728 18979 ft 413 kts 252°
2026-04-27 17:55 13.26599 1.47902 19364 ft 415 kts 252°
2026-04-27 17:55 13.25746 1.45065 19747 ft 417 kts 252°
2026-04-27 17:56 13.24889 1.42212 20097 ft 420 kts 252°
2026-04-27 17:56 13.24025 1.39340 20446 ft 422 kts 252°
2026-04-27 17:56 13.23158 1.36458 20829 ft 424 kts 252°
2026-04-27 17:56 13.22286 1.33560 21207 ft 425 kts 252°
2026-04-27 17:57 13.21411 1.30655 21560 ft 427 kts 252°
2026-04-27 17:57 13.20530 1.27731 21884 ft 430 kts 252°
2026-04-27 17:57 13.19645 1.24795 22214 ft 432 kts 252°
2026-04-27 17:57 13.18755 1.21843 22548 ft 434 kts 252°
2026-04-27 17:58 13.17860 1.18875 22879 ft 436 kts 252°
2026-04-27 17:58 13.16961 1.15898 23195 ft 438 kts 252°
2026-04-27 17:58 13.16058 1.12906 23484 ft 440 kts 252°
2026-04-27 17:58 13.15149 1.09899 23734 ft 442 kts 252°
2026-04-27 17:59 13.14239 1.06885 23989 ft 444 kts 252°
2026-04-27 17:59 13.13323 1.03855 24247 ft 445 kts 252°
2026-04-27 17:59 13.12404 1.00818 24494 ft 446 kts 252°
2026-04-27 17:59 13.11483 0.97773 24761 ft 447 kts 252°
2026-04-27 18:00 13.10560 0.94722 25023 ft 448 kts 252°
2026-04-27 18:00 13.09634 0.91663 25255 ft 450 kts 252°
2026-04-27 18:00 13.08702 0.88591 25465 ft 452 kts 252°
2026-04-27 18:00 13.07765 0.85505 25699 ft 454 kts 252°
2026-04-27 18:01 13.06824 0.82412 25936 ft 455 kts 252°
2026-04-27 18:01 13.05881 0.79313 26180 ft 456 kts 252°
2026-04-27 18:01 13.04935 0.76208 26415 ft 457 kts 252°
2026-04-27 18:01 13.03987 0.73093 26634 ft 458 kts 252°
2026-04-27 18:02 13.03035 0.69967 26841 ft 460 kts 252°
2026-04-27 18:02 13.02082 0.66837 27049 ft 461 kts 252°
2026-04-27 18:02 13.01123 0.63691 27253 ft 462 kts 252°
2026-04-27 18:02 13.00162 0.60541 27458 ft 464 kts 252°
2026-04-27 18:03 12.99199 0.57382 27653 ft 465 kts 252°
2026-04-27 18:03 12.98232 0.54213 27844 ft 466 kts 252°
2026-04-27 18:03 12.97262 0.51035 28035 ft 468 kts 252°
2026-04-27 18:03 12.96289 0.47849 28225 ft 469 kts 252°
2026-04-27 18:04 12.95313 0.44658 28401 ft 470 kts 252°
2026-04-27 18:04 12.94334 0.41455 28586 ft 471 kts 252°
2026-04-27 18:04 12.93352 0.38243 28754 ft 472 kts 252°
2026-04-27 18:04 12.92368 0.35029 28936 ft 473 kts 252°
2026-04-27 18:05 12.91381 0.31808 29112 ft 474 kts 252°
2026-04-27 18:05 12.90393 0.28583 29332 ft 474 kts 252°
2026-04-27 18:05 12.89406 0.25362 29620 ft 473 kts 252°
2026-04-27 18:05 12.88424 0.22157 29914 ft 471 kts 252°
2026-04-27 18:06 12.87442 0.18955 30146 ft 470 kts 252°
2026-04-27 18:06 12.86463 0.15766 30383 ft 469 kts 252°
2026-04-27 18:06 12.85486 0.12585 30632 ft 467 kts 252°
2026-04-27 18:06 12.84513 0.09419 30891 ft 465 kts 252°
2026-04-27 18:07 12.83543 0.06259 31139 ft 464 kts 252°
2026-04-27 18:07 12.82575 0.03112 31378 ft 463 kts 252°
2026-04-27 18:07 12.81608 -0.00029 31635 ft 462 kts 252°
2026-04-27 18:07 12.80644 -0.03161 31909 ft 460 kts 252°
2026-04-27 18:08 12.79683 -0.06282 32149 ft 459 kts 252°
2026-04-27 18:08 12.78724 -0.09398 32374 ft 458 kts 252°
2026-04-27 18:08 12.77764 -0.12510 32613 ft 457 kts 252°
2026-04-27 18:08 12.76808 -0.15613 32860 ft 456 kts 252°
2026-04-27 18:09 12.75853 -0.18709 33099 ft 455 kts 252°
2026-04-27 18:09 12.74903 -0.21786 33327 ft 455 kts 252°
2026-04-27 18:09 12.73945 -0.24888 33560 ft 454 kts 252°
2026-04-27 18:09 12.72996 -0.27962 33805 ft 453 kts 252°
2026-04-27 18:10 12.71089 -0.34132 33851 ft 455 kts 252°
2026-04-27 18:10 12.69177 -0.40312 33848 ft 454 kts 252°
2026-04-27 18:11 12.67273 -0.46463 33855 ft 452 kts 252°
2026-04-27 18:11 12.65371 -0.52601 33854 ft 451 kts 252°
2026-04-27 18:12 12.63472 -0.58724 33855 ft 451 kts 252°
2026-04-27 18:12 12.61573 -0.64847 33851 ft 451 kts 252°
2026-04-27 18:13 12.59670 -0.70980 33857 ft 452 kts 252°
2026-04-27 18:13 12.57763 -0.77121 33855 ft 453 kts 252°
2026-04-27 18:14 12.55851 -0.83274 33854 ft 454 kts 252°
2026-04-27 18:14 12.53932 -0.89444 33851 ft 455 kts 252°
2026-04-27 18:15 12.52006 -0.95629 33855 ft 457 kts 252°
2026-04-27 18:15 12.50076 -1.01823 33852 ft 458 kts 252°
2026-04-27 18:16 12.48139 -1.08035 33851 ft 458 kts 252°
2026-04-27 18:16 12.46199 -1.14250 33848 ft 459 kts 252°
2026-04-27 18:17 12.44256 -1.20467 33861 ft 459 kts 252°
2026-04-27 18:17 12.42311 -1.26686 33877 ft 459 kts 252°
2026-04-27 18:18 12.40364 -1.32910 33891 ft 459 kts 252°
2026-04-27 18:18 12.38415 -1.39130 33906 ft 459 kts 252°
2026-04-27 18:19 12.36467 -1.45347 33912 ft 459 kts 252°
2026-04-27 18:19 12.34506 -1.51558 33907 ft 459 kts 251°
2026-04-27 18:20 12.32191 -1.57587 33912 ft 459 kts 246°
2026-04-27 18:20 12.29602 -1.63551 33904 ft 459 kts 246°
2026-04-27 18:21 12.27026 -1.69517 33891 ft 459 kts 246°
2026-04-27 18:21 12.24499 -1.75511 33877 ft 459 kts 247°
2026-04-27 18:22 12.21996 -1.81512 33867 ft 459 kts 247°
2026-04-27 18:22 12.19491 -1.87522 33854 ft 460 kts 247°
2026-04-27 18:23 12.16981 -1.93531 33852 ft 460 kts 247°
2026-04-27 18:23 12.14466 -1.99547 33862 ft 460 kts 247°
2026-04-27 18:24 12.11947 -2.05565 33861 ft 461 kts 247°
2026-04-27 18:24 12.09424 -2.11586 33858 ft 461 kts 247°
2026-04-27 18:25 12.06898 -2.17613 33865 ft 461 kts 247°
2026-04-27 18:25 12.04371 -2.23639 33862 ft 462 kts 247°
2026-04-27 18:26 12.02267 -2.28652 33862 ft 462 kts 247°
2026-04-27 18:26 11.99717 -2.34723 33857 ft 462 kts 247°
2026-04-27 18:27 11.97199 -2.40714 33860 ft 462 kts 247°
2026-04-27 18:27 11.94664 -2.46742 33857 ft 462 kts 247°
2026-04-27 18:28 11.92109 -2.52815 33854 ft 462 kts 247°
2026-04-27 18:28 11.89571 -2.58841 33852 ft 462 kts 247°
2026-04-27 18:29 11.87032 -2.64865 33860 ft 462 kts 247°
2026-04-27 18:29 11.84493 -2.70886 33855 ft 462 kts 247°
2026-04-27 18:30 11.81970 -2.76865 33852 ft 461 kts 246°
2026-04-27 18:30 11.79415 -2.82918 33857 ft 461 kts 246°
2026-04-27 18:31 11.76891 -2.88892 33854 ft 461 kts 246°
2026-04-27 18:31 11.74330 -2.94938 33855 ft 461 kts 246°
2026-04-27 18:32 11.71784 -3.00942 33859 ft 461 kts 246°
2026-04-27 18:32 11.69236 -3.06949 33856 ft 461 kts 246°
2026-04-27 18:33 11.66707 -3.12910 33853 ft 461 kts 246°
2026-04-27 18:33 11.64161 -3.18906 33854 ft 461 kts 246°
2026-04-27 18:34 11.61612 -3.24906 33854 ft 461 kts 246°
2026-04-27 18:34 11.59064 -3.30899 33852 ft 460 kts 246°
2026-04-27 18:35 11.56515 -3.36892 33859 ft 460 kts 246°
2026-04-27 18:35 11.53967 -3.42878 33850 ft 460 kts 246°
2026-04-27 18:36 11.51417 -3.48863 33854 ft 460 kts 246°
2026-04-27 18:36 11.48866 -3.54846 33862 ft 460 kts 246°
2026-04-27 18:37 11.46316 -3.60826 33861 ft 460 kts 246°
2026-04-27 18:37 11.43764 -3.66805 33861 ft 460 kts 246°
2026-04-27 18:38 11.41209 -3.72787 33862 ft 460 kts 246°
2026-04-27 18:38 11.38650 -3.78775 33865 ft 461 kts 246°
2026-04-27 18:39 11.36088 -3.84765 33861 ft 461 kts 246°
2026-04-27 18:39 11.33523 -3.90759 33859 ft 462 kts 246°
2026-04-27 18:40 11.30955 -3.96757 33869 ft 462 kts 246°
2026-04-27 18:40 11.28383 -4.02759 33874 ft 462 kts 246°
2026-04-27 18:41 11.25808 -4.08766 33891 ft 463 kts 246°
2026-04-27 18:41 11.23229 -4.14776 33913 ft 463 kts 246°
2026-04-27 18:42 11.21086 -4.19770 33932 ft 463 kts 246°
2026-04-27 18:42 11.18066 -4.26802 33939 ft 464 kts 246°
2026-04-27 18:43 11.15482 -4.32819 33940 ft 464 kts 247°
2026-04-27 18:43 11.13680 -4.39093 33948 ft 463 kts 263°
2026-04-27 18:44 11.13220 -4.45638 33935 ft 463 kts 266°
2026-04-27 18:44 11.12480 -4.52147 33910 ft 463 kts 261°
2026-04-27 18:45 11.11439 -4.58611 33890 ft 462 kts 261°
2026-04-27 18:45 11.10466 -4.65081 33876 ft 462 kts 262°
2026-04-27 18:46 11.09573 -4.71545 33869 ft 461 kts 262°
2026-04-27 18:46 11.08706 -4.78003 33870 ft 460 kts 262°
2026-04-27 18:47 11.07836 -4.84454 33879 ft 459 kts 262°
2026-04-27 18:47 11.06963 -4.90888 33870 ft 458 kts 262°
2026-04-27 18:48 11.06088 -4.97312 33872 ft 458 kts 262°
2026-04-27 18:48 11.05213 -5.03726 33875 ft 457 kts 262°
2026-04-27 18:49 11.04338 -5.10134 33876 ft 457 kts 262°
2026-04-27 18:49 11.03463 -5.16534 33877 ft 456 kts 262°
2026-04-27 18:50 11.02587 -5.22926 33876 ft 456 kts 262°
2026-04-27 18:50 11.01710 -5.29319 33877 ft 456 kts 262°
2026-04-27 18:51 11.00832 -5.35710 33870 ft 456 kts 262°
2026-04-27 18:51 10.99951 -5.42100 33869 ft 456 kts 262°
2026-04-27 18:52 10.99068 -5.48488 33874 ft 456 kts 262°
2026-04-27 18:53 10.97740 -5.58070 33869 ft 456 kts 262°
2026-04-27 18:53 10.96854 -5.64459 33867 ft 456 kts 262°
2026-04-27 18:54 10.95967 -5.70847 33869 ft 456 kts 262°
2026-04-27 18:54 10.95078 -5.77232 33869 ft 456 kts 262°
2026-04-27 18:55 10.94189 -5.83614 33863 ft 456 kts 262°
2026-04-27 18:55 10.93298 -5.89998 33861 ft 456 kts 262°
2026-04-27 18:56 10.92406 -5.96376 33863 ft 455 kts 262°
2026-04-27 18:56 10.91513 -6.02757 33856 ft 455 kts 262°
2026-04-27 18:57 10.90639 -6.08993 33856 ft 455 kts 262°
2026-04-27 18:57 10.89745 -6.15356 33857 ft 455 kts 262°
2026-04-27 18:58 10.88848 -6.21726 33857 ft 454 kts 262°
2026-04-27 18:58 10.87950 -6.28094 33862 ft 454 kts 262°
2026-04-27 18:59 10.87052 -6.34457 33861 ft 454 kts 262°
2026-04-27 18:59 10.86154 -6.40814 33858 ft 454 kts 262°
2026-04-27 19:00 10.85254 -6.47169 33860 ft 454 kts 262°
2026-04-27 19:00 10.84386 -6.53292 33861 ft 454 kts 262°
2026-04-27 19:01 10.83512 -6.59447 33857 ft 454 kts 262°
2026-04-27 19:01 10.82609 -6.65798 33865 ft 453 kts 262°
2026-04-27 19:02 10.81706 -6.72144 33866 ft 453 kts 262°
2026-04-27 19:02 10.80801 -6.78490 33867 ft 453 kts 262°
2026-04-27 19:03 10.79896 -6.84830 33865 ft 453 kts 262°
2026-04-27 19:03 10.78988 -6.91174 33868 ft 453 kts 262°
2026-04-27 19:04 10.78078 -6.97511 33871 ft 453 kts 262°
2026-04-27 19:04 10.77168 -7.03850 33875 ft 453 kts 262°
2026-04-27 19:05 10.76256 -7.10190 33874 ft 453 kts 262°
2026-04-27 19:05 10.75344 -7.16525 33884 ft 453 kts 262°
2026-04-27 19:06 10.74430 -7.22859 33876 ft 453 kts 262°
2026-04-27 19:06 10.73515 -7.29198 33873 ft 453 kts 261°
2026-04-27 19:07 10.72599 -7.35529 33875 ft 453 kts 261°
2026-04-27 19:07 10.71831 -7.40835 33873 ft 453 kts 261°
2026-04-27 19:08 10.70912 -7.47171 33876 ft 453 kts 261°
2026-04-27 19:08 10.69993 -7.53500 33879 ft 453 kts 261°
2026-04-27 19:09 10.69071 -7.59835 33880 ft 453 kts 261°
2026-04-27 19:09 10.68154 -7.66130 33877 ft 453 kts 261°
2026-04-27 19:10 10.67235 -7.72434 33875 ft 453 kts 261°
2026-04-27 19:10 10.66316 -7.78728 33874 ft 453 kts 261°
2026-04-27 19:11 10.66166 -7.79752 33879 ft 453 kts 261°